DW2806 Weather Reports


time (UTC)temp
F
wind
direction
speed
knots
gust
knots
rain 1hr
in
rain 24hr
in
rain mn
in
humidity
%
barometer
mb
20260507103003 49 151 0.0 0.0 0.00 0.00 0.00 90 1025.7
20260507101501 49 151 0.0 0.0 0.00 0.00 0.00 91 1025.7
20260507100059 49 151 0.0 0.0 0.00 0.00 0.00 90 1025.7
20260507094558 49 151 0.0 0.0 0.00 0.00 0.00 90 1025.7
20260507093100 49 151 0.0 0.0 0.00 0.00 0.00 90 1025.7
20260507091559 49 152 0.0 0.0 0.00 0.00 0.00 89 1025.7
20260507090054 50 151 0.0 0.0 0.00 0.00 0.00 90 1025.7
20260507084553 50 152 0.0 0.0 0.00 0.00 0.00 91 1025.7
20260507083051 50 152 0.0 0.0 0.00 0.00 0.00 90 1025.7
20260507081548 51 152 0.0 1.7 0.00 0.00 0.00 90 1025.7
20260507080047 52 98 0.0 0.0 0.00 0.00 0.00 89 1025.7
20260507074545 52 98 0.0 0.0 0.00 0.00 0.00 88 1025.7
20260507073043 52 98 0.0 0.0 0.00 0.00 0.00 89 1025.7
20260507071542 52 98 0.0 0.0 0.00 0.00 0.00 90 1025.7
20260507070044 52 98 0.0 0.0 0.00 0.00 0.00 90 1025.7
20260507064542 52 98 0.0 0.0 0.00 0.00 0.00 89 1025.7
20260507063046 52 98 0.0 0.0 0.00 0.00 0.00 88 1025.7
20260507061538 53 98 0.0 0.0 0.00 0.00 0.00 90 1025.7
20260507060048 53 98 0.0 0.0 0.00 0.00 0.00 90 1025.7
20260507054544 54 98 0.0 3.5 0.00 0.00 0.00 90 1025.7
20260507053031 55 3 0.0 0.0 0.00 0.00 0.00 91 1025.7
20260507051529 56 3 0.0 0.0 0.00 0.00 0.00 92 1025.7
20260507050026 57 3 0.0 1.7 0.00 0.00 0.00 92 1025.7
20260507044544 57 273 0.0 0.0 0.00 0.00 0.00 92 1025.7
20260507043022 58 273 0.0 0.0 0.00 0.00 0.00 92 1025.7
20260507041519 59 273 0.0 0.0 0.00 0.00 0.00 93 1025.7
20260507040017 59 273 0.0 0.0 0.00 0.00 0.00 93 1025.7
20260507034516 59 273 0.0 0.0 0.00 0.00 0.00 93 1025.7
20260507033016 59 273 0.0 1.7 0.00 0.00 0.00 93 1025.7
20260507031516 59 271 0.0 0.0 0.00 0.00 0.00 93 1025.7
20260507030016 59 270 0.0 0.0 0.00 0.00 0.00 93 1025.7
20260507024515 59 246 0.0 0.0 0.00 0.00 0.00 93 1025.7
20260507023014 59 244 0.0 0.0 0.00 0.00 0.00 93 1025.7
20260507021519 59 244 0.0 0.0 0.00 0.00 0.00 93 1025.7
20260507020013 59 244 0.0 0.0 0.00 0.00 0.00 93 1025.7
20260507014513 59 243 0.0 0.0 0.00 0.00 0.00 93 1025.7
20260507013011 59 243 0.0 0.0 0.00 0.00 0.00 93 1025.7
20260507011511 59 243 0.0 0.0 0.00 0.00 0.00 93 1025.7
20260507010011 59 244 0.0 3.5 0.00 0.00 0.00 93 1025.7
20260507004510 59 259 0.0 4.3 0.00 0.00 0.00 93 1025.7
20260507003015 59 254 0.0 0.0 0.00 0.00 0.00 93 1025.7
20260507001516 59 254 0.0 0.0 0.00 0.00 0.00 93 1025.7
20260507000012 60 252 0.0 0.0 0.00 0.00 0.00 92 1025.7
20260506234507 60 252 0.0 0.9 0.00 0.00 0.00 92 1025.7
20260506233003 60 308 0.0 0.0 0.00 0.00 0.00 92 1025.7
20260506231506 60 308 0.0 0.0 0.00 0.00 0.00 92 1025.7
20260506230002 60 215 0.0 4.3 0.00 0.00 0.00 92 1025.7
20260506224502 60 254 0.0 3.5 0.00 0.00 0.00 92 1025.7
20260506223001 60 270 0.0 0.0 0.00 0.00 0.00 92 1025.7
20260506221501 60 281 0.0 3.5 0.00 0.00 0.00 92 1025.7
20260506220105 61 306 0.0 0.0 0.00 0.00 0.00 91 1025.7
20260506214610 61 259 0.0 0.0 0.00 0.00 0.00 91 1025.7
20260506213059 61 245 0.0 5.2 0.00 0.00 0.00 91 1025.7
20260506211559 61 279 0.0 1.7 0.00 0.00 0.00 91 1025.7
20260506210100 61 283 0.0 5.2 0.00 0.00 0.00 90 1025.7
20260506204617 62 163 0.0 0.0 0.00 0.00 0.00 90 1025.7
20260506203056 63 162 0.0 5.2 0.00 0.00 0.00 88 1025.7
20260506201554 64 243 0.0 0.0 0.00 0.00 0.00 87 1025.7
20260506200053 64 30 0.0 3.5 0.00 0.00 0.00 85 1025.7
20260506194603 65 153 0.0 0.9 0.00 0.00 0.00 84 1025.7
20260506193057 66 256 0.0 0.0 0.00 0.00 0.00 83 1025.7
20260506191552 66 256 0.0 0.0 0.00 0.00 0.00 82 1025.7
20260506190050 67 261 0.0 4.3 0.00 0.00 0.00 79 1025.7
20260506184550 70 6 0.0 3.5 0.00 0.00 0.00 72 1025.7
20260506183054 71 214 0.9 6.1 0.00 0.00 0.00 67 1025.7
20260506181549 71 282 0.0 7.0 0.00 0.00 0.00 66 1025.7
20260506180051 72 263 0.0 4.3 0.00 0.00 0.00 65 1025.7
20260506174549 73 281 0.0 4.3 0.00 0.00 0.00 63 1025.7
20260506173049 74 64 0.0 7.0 0.00 0.00 0.00 62 1025.7
20260506171554 73 301 0.9 4.3 0.00 0.00 0.00 64 1025.7
20260506170047 72 144 0.0 4.3 0.00 0.00 0.00 65 1025.7
20260506164544 72 304 0.0 3.5 0.00 0.00 0.00 65 1025.7
20260506163045 73 263 0.0 4.3 0.00 0.00 0.00 64 1025.7
20260506161543 73 268 0.9 6.1 0.00 0.00 0.00 64 1025.7
20260506160043 73 267 0.0 7.0 0.00 0.00 0.00 65 1025.7
20260506154552 73 229 0.0 5.2 0.00 0.00 0.00 65 1025.7
20260506153042 73 309 0.9 7.8 0.00 0.00 0.00 64 1025.7
20260506151538 73 271 0.0 4.3 0.00 0.00 0.00 65 1025.7
20260506150036 72 233 0.0 10.4 0.00 0.00 0.00 68 1025.7
20260506144537 71 319 0.0 6.1 0.00 0.00 0.00 67 1025.7
20260506143033 71 121 0.0 5.2 0.00 0.00 0.00 69 1025.7
20260506141529 70 337 0.0 5.2 0.00 0.00 0.00 71 1025.7
20260506140029 69 266 0.9 7.8 0.00 0.00 0.00 74 1025.7
20260506134523 68 204 0.0 3.5 0.00 0.00 0.00 75 1025.7
20260506133040 67 266 0.9 7.0 0.00 0.00 0.00 74 1025.7
20260506131528 66 338 0.0 4.3 0.00 0.00 0.00 76 1025.7
20260506130020 66 238 0.9 7.8 0.00 0.00 0.00 76 1025.7
20260506124516 65 14 0.0 7.0 0.00 0.00 0.00 79 1025.7
20260506123014 64 255 0.0 4.3 0.00 0.00 0.00 79 1025.7
20260506121513 64 281 0.9 5.2 0.00 0.00 0.00 80 1025.7
20260506120018 64 329 0.0 4.3 0.00 0.00 0.00 80 1025.7
20260506114511 63 154 0.0 3.5 0.00 0.00 0.00 81 1025.7
20260506113011 63 169 0.0 1.7 0.00 0.00 0.00 81 1025.7
20260506111508 62 262 0.9 5.2 0.00 0.00 0.00 83 1025.7
20260506110006 61 261 0.0 0.0 0.00 0.00 0.00 84 1025.7
20260506104506 61 282 0.0 6.1 0.00 0.00 0.00 84 1025.7